Regional Weather Roundup
Issued by NWS

Home | Current Version | Previous Version | Text Only | Print | Product List | Glossary Off
Versions: 1 2 3 4 5 6 7 8 9 10 11 12 13 14 15 16 17 18 19 20 21 22 23 24 25 26 27

000
ASUS45 KSLC 291810
RWRUT

UTAH REGIONAL WEATHER ROUNDUP
NATIONAL WEATHER SERVICE SALT LAKE CITY UT
1200 PM MDT FRI JUL 29 2016

UTZ001>011-023>025-291900-

NORTHERN UTAH

CITY           SKY/WX    TMP DP  RH WIND       PRES   REMARKS
BRIGHAM CITY     N/A     89  32  13 W5        30.07F
HILL AFB       SUNNY     89  40  17 VRB5      30.10F
LOGAN          SUNNY     85  44  23 VRB6      30.08F
OGDEN          SUNNY     91  39  16 VRB3      30.07F
PROVO AIRPORT  MOSUNNY   84  48  28 SW6       30.08F
SALT LAKE CITY MOSUNNY   94  36  13 CALM      30.04F
VERNAL         SUNNY     85  38  18 SE5       30.14F
WENDOVER       SUNNY     90  37  15 SE9       30.07S
HEBER CITY     SUNNY     82  37  20 CALM      30.15F

$$

UTZ012>022-026-027-291900-

SOUTHERN/CENTRAL UTAH

CITY           SKY/WX    TMP DP  RH WIND       PRES   REMARKS
BLANDING       SUNNY     91  36  14 SW3       30.23F
BRYCE CANYON   PTSUNNY   85  26  11 VRB5      30.34F
CEDAR CITY     PTSUNNY   93  37  14 NE6       30.16F
DELTA          PTSUNNY   90  36  14 SW9G18    30.09S
MILFORD        PTSUNNY   91  39  16 S7        30.11S
MOAB/CYNLANDS  SUNNY     97  29   9 VRB3      30.03F HX  91
PRICE          SUNNY     91  31  11 VRB7      30.16F
ST GEORGE      CLEAR     95  46  18 W3        29.97S HX  91

$$

REGIONAL REPORTS     COLORADO/ARIZONA

CITY           SKY/WX    TMP DP  RH WIND       PRES   REMARKS
CRAIG, CO      SUNNY     82  40  22 VRB3      30.23F
GRAND JUNCTION SUNNY     91  34  13 S6        30.09F
RIFLE          SUNNY     88  39  17 VRB5      30.15F
MONTROSE       SUNNY     88  34  14 VRB5      30.19S
CORTEZ         SUNNY     92  35  13 VRB3      30.16F
PAGE, AZ       SUNNY     96  36  12 CALM      30.03F HX  91
GRAND CANYON   SUNNY     91  40  16 VRB5G17   30.27F
KINGMAN        PTSUNNY   97  52  21 SW14G21   30.01S HX  94
FLAGSTAFF      MOSUNNY   82  41  23 W6        30.29F

$$

REGIONAL REPORTS    NEVADA/IDAHO/WYOMING

CITY           SKY/WX    TMP DP  RH WIND       PRES   REMARKS
LAS VEGAS, NV  CLOUDY   101  46  15 E5        29.84F HX  97
ELY            MOSUNNY   91  38  15 VRB7      30.21F
ELKO           SUNNY     90  34  13 E3        30.12F
POCATELLO, ID  SUNNY     87  39  18 VRB6      30.10F
BURLEY         SUNNY     83  48  29 W8        30.06F
EVANSTON, WY   MOSUNNY   85  31  14 W13G28    30.28F
ROCK SPRINGS   SUNNY     81  41  24 W6        30.24F
KEMMERER         N/A     81  28  15 W10G22    30.28F

$$




USA.gov is the U.S. government's official web portal to all federal, state and local government web resources and services.